Home   Weather   San Angelo   Past weeks

Flag for USA Past Weather in San Angelo, Texas, USA — Yesterday and Last 2 Weeks

76 °F


Feels Like: 78 °F
Forecast: 60 / 85 °F
Wind: 15 mph from Southwest

Location: Mathis Field

Current Time: Oct 26, 2016 at 12:18:33 PM

Latest Report: Oct 26, 2016 at 11:51 AM

Visibility: 10 mi

Pressure: 30.11 "Hg (28.23 "Hg at 561m altitude)

Humidity: 62%

Dew Point: 62 °F

Location of San AngeloLocation

Past Weather in San Angelo — Graph


San Angelo Temperature Yesterday

Maximum temperature yesterday: 76 °F (at 1:51 PM)
Minimum temperature yesterday: 61 °F (at 10:51 PM)
Average temperature yesterday: 68 °F

High & Low Weather Summary for the Past Weeks

High96 °F (Oct 18, 2:51 PM)91% (Oct 20, 1:51 AM)30.32 "Hg (Oct 20, 1:51 AM)
Low41 °F (Oct 21, 5:51 AM)21% (Oct 21, 4:51 PM)29.66 "Hg (Oct 17, 5:51 PM)
Average71 °F64%30.01 "Hg
* Reported Oct 11 10:51 AM — Oct 26 10:51 AM, San Angelo, Weather by CustomWeather, © 2016

Note: Actual official high and low records may vary slightly from our data, if they occured in-between our weather recording intervals... More about our weather records


San Angelo Weather History for the Previous 24 Hours

Scroll right to see more
Time TempWeatherWind HumidityBarometerVisibility
10:51 AM
Wed, Oct 26
73 °FSunny.14 mph71%30.12 "Hg10 mi
9:51 AM70 °FOvercast.10 mph79%30.11 "Hg10 mi
8:51 AM62 °FOvercast.3 mph90%30.10 "Hg10 mi
7:51 AM59 °FClear.5 mph90%30.08 "Hg10 mi
6:51 AM59 °FPassing clouds.6 mph90%30.06 "Hg10 mi
5:51 AM59 °FClear.5 mph90%30.05 "Hg10 mi
4:51 AM60 °FClear.7 mph90%30.05 "Hg10 mi
3:51 AM60 °FClear.6 mph90%30.06 "Hg10 mi
2:51 AM59 °FClear.No wind90%30.06 "Hg10 mi
1:51 AM59 °FClear.No wind90%30.06 "Hg10 mi
12:51 AM60 °FClear.No wind90%30.08 "Hg10 mi
11:51 PM
Tue, Oct 25
61 °FClear.No wind90%30.09 "Hg10 mi
10:51 PM61 °FClear.No wind90%30.09 "Hg10 mi
9:51 PM62 °FClear.3 mph86%30.08 "Hg10 mi
8:51 PM67 °FClear.6 mph79%30.06 "Hg10 mi
7:51 PM70 °FClear.6 mph71%30.06 "Hg10 mi
6:51 PM73 °FSunny.10 mph64%30.03 "Hg10 mi
5:51 PM75 °FSunny.12 mph60%30.02 "Hg10 mi
4:51 PM76 °FPassing clouds.13 mph60%30.03 "Hg10 mi
3:51 PM75 °FPartly sunny.14 mph62%30.05 "Hg10 mi
2:51 PM76 °FOvercast.15 mph60%30.07 "Hg10 mi
1:51 PM76 °FPassing clouds.12 mph60%30.09 "Hg10 mi
12:51 PM75 °FPartly sunny.14 mph64%30.12 "Hg10 mi
Weather by CustomWeather, © 2016

See weather overviewHow to use our weather pages